Change the Weather History Date:

Sunday, October 21, 2012

  Actual Average Record
Temperature  
Mean Temperature 40 °F -  
Max Temperature 48 °F 55 °F 63 °F (1999)
Min Temperature 33 °F 41 °F 33 °F (1961)
Degree Days  
Heating Degree Days 26    
Moisture  
Dew Point 37 °F    
Average Humidity 83    
Maximum Humidity 96    
Minimum Humidity 68    
Precipitation  
Precipitation 0.07 in - - ()
Sea Level Pressure  
Sea Level Pressure 29.82 in    
Wind  
Wind Speed 4 mph (SW)    
Max Wind Speed 10 mph    
Max Gust Speed -    
Visibility 10 miles    
Events Rain    
Averages and records for this station are not official NWS values.
T = Trace of Precipitation, MM = Missing Value Source: NWS Daily Summary

Daily Weather History Graph

Daily Weather History Graph

Search for Another Location

Airport or City:

Trip Planner

Search our weather history database for the weather conditions in past years. The results will help you decide how hot, cold, wet, or windy it might be!

Date:

Astronomy

Oct. 21, 2012 Rise Set
Actual Time 7:43 AM PDT 6:12 PM PDT
Civil Twilight 7:11 AM PDT 6:44 PM PDT
Nautical Twilight 6:35 AM PDT 7:20 PM PDT
Astronomical Twilight 5:59 AM PDT 7:56 PM PDT
Moon 2:16 PM PDT (10/21) No Moon Set
Length of Visible Light 11h 33m
Length of Day
10h 29m
Waxing Crescent, 46% of the Moon is Illuminated
Oct 21
Waxing Crescent
Oct 21
First Quarter
Oct 29
Full
Nov 6
Last Quarter
Nov 13
New

Hourly Weather History & Observations

Time (PDT) Temp. Windchill Dew Point Humidity Pressure Visibility Wind Dir Wind Speed Gust Speed Precip Events Conditions
12:53 AM 37.9 °F - 36.0 °F 93% 29.82 in 10.0 mi Calm Calm - N/A   Overcast
1:53 AM 41.0 °F - 37.0 °F 86% 29.82 in 10.0 mi Calm Calm - 0.00 in   Overcast
2:53 AM 42.1 °F 37.1 °F 36.0 °F 79% 29.82 in 10.0 mi WSW 8.1 mph - 0.00 in   Overcast
3:37 AM 41.0 °F 35.2 °F 37.0 °F 86% 29.82 in 6.0 mi West 9.2 mph - 0.05 in Rain Rain
3:53 AM 39.9 °F 34.5 °F 37.0 °F 89% 29.83 in 10.0 mi WSW 8.1 mph - 0.06 in Rain Light Rain
4:20 AM 39.9 °F 35.8 °F 37.0 °F 89% 29.81 in 10.0 mi SW 5.8 mph - 0.01 in Rain Light Rain
4:53 AM 37.9 °F 33.5 °F 36.0 °F 93% 29.82 in 10.0 mi SSW 5.8 mph - 0.01 in   Mostly Cloudy
5:53 AM 35.1 °F - 34.0 °F 96% 29.82 in 10.0 mi Calm Calm - N/A   Partly Cloudy
6:53 AM 34.0 °F 29.8 °F 33.1 °F 96% 29.83 in 10.0 mi South 4.6 mph - N/A   Clear
7:53 AM 33.1 °F 30.0 °F 32.0 °F 96% 29.84 in 10.0 mi SSW 3.5 mph - N/A   Clear
8:53 AM 37.9 °F - 35.1 °F 89% 29.84 in 10.0 mi Calm Calm - N/A   Clear
9:53 AM 44.1 °F 42.5 °F 37.9 °F 79% 29.85 in 10.0 mi ESE 3.5 mph - N/A   Clear
10:53 AM 46.0 °F 42.5 °F 37.9 °F 73% 29.85 in 10.0 mi ESE 6.9 mph - N/A   Clear
11:53 AM 46.9 °F - 37.9 °F 71% 29.85 in 10.0 mi East 6.9 mph - N/A   Clear
12:53 PM 46.9 °F - 37.9 °F 71% 29.85 in 10.0 mi East 5.8 mph - N/A   Clear
1:53 PM 46.9 °F - 39.0 °F 74% 29.84 in 10.0 mi East 5.8 mph - N/A   Scattered Clouds
2:53 PM 46.0 °F 43.9 °F 39.0 °F 76% 29.83 in 10.0 mi East 4.6 mph - N/A   Mostly Cloudy
3:53 PM 46.9 °F - 39.9 °F 77% 29.81 in 10.0 mi North 4.6 mph - N/A   Overcast
4:53 PM 46.9 °F - 37.0 °F 68% 29.81 in 10.0 mi Calm Calm - N/A   Overcast
5:53 PM 46.0 °F 43.9 °F 37.0 °F 71% 29.80 in 10.0 mi West 4.6 mph - N/A   Scattered Clouds
6:53 PM 41.0 °F 37.1 °F 37.0 °F 86% 29.81 in 10.0 mi WSW 5.8 mph - N/A   Clear
7:53 PM 42.1 °F 37.7 °F 37.9 °F 85% 29.81 in 10.0 mi West 6.9 mph - N/A   Clear
8:53 PM 43.0 °F 37.2 °F 37.0 °F 80% 29.80 in 10.0 mi WSW 10.4 mph - N/A   Clear
9:53 PM 39.9 °F - 36.0 °F 86% 29.79 in 10.0 mi Calm Calm - N/A   Clear
10:53 PM 39.0 °F 34.0 °F 35.1 °F 86% 29.79 in 10.0 mi SW 6.9 mph - N/A   Clear
11:53 PM 37.0 °F 31.0 °F 34.0 °F 89% 29.78 in 10.0 mi SW 8.1 mph - N/A   Clear